Time,TemperatureF,DewpointF,PressureIn,WindDirection,WindDirectionDegrees,WindSpeedMPH,WindSpeedGustMPH,Humidity,HourlyPrecipIn,Conditions,Clouds,dailyrainin,SoftwareType,DateUTC
2013-06-05 00:02:00,49.7,42.4,27.56,ENE,68,0.0,0.0,76,0.00,,,0.00,WUHU216HW,2013-06-05 07:02:00,
2013-06-05 00:07:00,49.5,42.2,27.56,ENE,68,0.0,0.0,76,0.00,,,0.00,WUHU216HW,2013-06-05 07:07:00,
2013-06-05 00:12:00,49.3,42.4,27.56,ENE,68,0.0,0.0,77,0.00,,,0.00,WUHU216HW,2013-06-05 07:12:00,
2013-06-05 00:17:00,49.1,42.2,27.56,ENE,68,0.0,0.0,77,0.00,,,0.00,WUHU216HW,2013-06-05 07:17:00,
2013-06-05 00:22:00,49.0,42.3,27.56,East,90,0.0,0.0,78,0.00,,,0.00,WUHU216HW,2013-06-05 07:22:00,
2013-06-05 00:27:00,48.8,41.9,27.55,East,90,0.0,0.0,77,0.00,,,0.00,WUHU216HW,2013-06-05 07:27:00,
2013-06-05 00:32:00,48.6,41.9,27.56,East,90,0.0,0.0,78,0.00,,,0.00,WUHU216HW,2013-06-05 07:32:00,
2013-06-05 00:37:00,48.6,41.9,27.56,East,90,0.0,0.0,78,0.00,,,0.00,WUHU216HW,2013-06-05 07:37:00,
2013-06-05 00:42:00,48.4,41.8,27.55,East,90,0.0,0.0,78,0.00,,,0.00,WUHU216HW,2013-06-05 07:42:00,
2013-06-05 00:47:00,48.2,41.6,27.55,East,90,0.0,0.0,78,0.00,,,0.00,WUHU216HW,2013-06-05 07:47:00,
2013-06-05 00:51:00,48.1,41.5,27.55,East,90,0.0,0.0,78,0.00,,,0.00,WUHU216HW,2013-06-05 07:51:00,
2013-06-05 00:57:00,47.9,41.7,27.55,East,90,0.0,0.0,79,0.00,,,0.00,WUHU216HW,2013-06-05 07:57:00,
2013-06-05 01:02:00,47.7,41.5,27.55,East,90,0.0,0.0,79,0.00,,,0.00,WUHU216HW,2013-06-05 08:02:00,
2013-06-05 01:07:00,47.5,41.3,27.55,East,90,0.0,0.0,79,0.00,,,0.00,WUHU216HW,2013-06-05 08:07:00,
2013-06-05 01:12:00,47.3,41.1,27.55,East,90,0.0,0.0,79,0.00,,,0.00,WUHU216HW,2013-06-05 08:12:00,
2013-06-05 01:17:00,47.2,41.3,27.55,East,90,0.0,0.0,80,0.00,,,0.00,WUHU216HW,2013-06-05 08:17:00,
2013-06-05 01:22:00,47.2,41.3,27.55,East,90,0.0,0.0,80,0.00,,,0.00,WUHU216HW,2013-06-05 08:22:00,
2013-06-05 01:27:00,47.0,40.9,27.55,East,90,0.0,0.0,79,0.00,,,0.00,WUHU216HW,2013-06-05 08:27:00,
2013-06-05 01:32:00,46.8,40.7,27.56,East,90,0.0,0.0,79,0.00,,,0.00,WUHU216HW,2013-06-05 08:32:00,
2013-06-05 01:37:00,46.6,40.5,27.55,East,90,0.0,0.0,79,0.00,,,0.00,WUHU216HW,2013-06-05 08:37:00,
2013-06-05 01:42:00,46.6,40.5,27.55,East,90,0.0,0.0,79,0.00,,,0.00,WUHU216HW,2013-06-05 08:42:00,
2013-06-05 01:47:00,46.4,40.3,27.55,East,90,0.0,0.0,79,0.00,,,0.00,WUHU216HW,2013-06-05 08:47:00,
2013-06-05 01:52:00,46.3,40.1,27.55,East,90,0.0,0.0,79,0.00,,,0.00,WUHU216HW,2013-06-05 08:52:00,
2013-06-05 01:57:00,46.3,40.1,27.55,East,90,0.0,0.0,79,0.00,,,0.00,WUHU216HW,2013-06-05 08:57:00,
2013-06-05 02:02:00,46.1,40.3,27.55,East,90,0.0,0.0,80,0.00,,,0.00,WUHU216HW,2013-06-05 09:02:00,
2013-06-05 02:07:00,45.7,40.0,27.55,East,90,0.0,0.0,80,0.00,,,0.00,WUHU216HW,2013-06-05 09:07:00,
2013-06-05 02:12:00,45.7,40.2,27.55,East,90,0.0,0.0,81,0.00,,,0.00,WUHU216HW,2013-06-05 09:12:00,
2013-06-05 02:17:00,45.5,40.1,27.55,East,90,0.0,0.0,81,0.00,,,0.00,WUHU216HW,2013-06-05 09:17:00,
2013-06-05 02:22:00,45.4,39.9,27.55,East,90,0.0,0.0,81,0.00,,,0.00,WUHU216HW,2013-06-05 09:22:00,
2013-06-05 02:27:00,45.2,40.1,27.55,ENE,68,0.0,0.0,82,0.00,,,0.00,WUHU216HW,2013-06-05 09:27:00,
2013-06-05 02:32:00,45.2,40.1,27.55,ENE,68,0.0,0.0,82,0.00,,,0.00,WUHU216HW,2013-06-05 09:32:00,
2013-06-05 02:37:00,45.0,39.9,27.55,ENE,68,0.0,0.0,82,0.00,,,0.00,WUHU216HW,2013-06-05 09:37:00,
2013-06-05 02:42:00,44.8,39.7,27.55,ENE,68,0.0,0.0,82,0.00,,,0.00,WUHU216HW,2013-06-05 09:42:00,
2013-06-05 02:47:00,44.8,40.0,27.55,ENE,68,0.0,0.0,83,0.00,,,0.00,WUHU216HW,2013-06-05 09:47:00,
2013-06-05 02:52:00,44.6,39.8,27.55,ENE,68,0.0,0.0,83,0.00,,,0.00,WUHU216HW,2013-06-05 09:52:00,
2013-06-05 02:57:00,44.6,39.8,27.55,ENE,68,0.0,0.0,83,0.00,,,0.00,WUHU216HW,2013-06-05 09:57:00,
2013-06-05 03:02:00,44.5,39.6,27.55,ENE,68,0.0,0.0,83,0.00,,,0.00,WUHU216HW,2013-06-05 10:02:00,
2013-06-05 03:07:00,44.5,39.6,27.55,ENE,68,0.0,0.0,83,0.00,,,0.00,WUHU216HW,2013-06-05 10:07:00,
2013-06-05 03:12:00,44.3,39.4,27.55,ENE,68,0.0,0.0,83,0.00,,,0.00,WUHU216HW,2013-06-05 10:12:00,
2013-06-05 03:17:00,44.3,39.4,27.55,ENE,68,0.0,0.0,83,0.00,,,0.00,WUHU216HW,2013-06-05 10:17:00,
2013-06-05 03:22:00,44.3,39.4,27.55,ENE,68,0.0,0.0,83,0.00,,,0.00,WUHU216HW,2013-06-05 10:22:00,
2013-06-05 03:27:00,44.3,39.4,27.55,ENE,68,0.0,0.0,83,0.00,,,0.00,WUHU216HW,2013-06-05 10:27:00,
2013-06-05 03:32:00,44.3,39.4,27.55,ENE,68,0.0,0.0,83,0.00,,,0.00,WUHU216HW,2013-06-05 10:32:00,
2013-06-05 03:37:00,44.1,39.2,27.55,East,90,0.0,0.0,83,0.00,,,0.00,WUHU216HW,2013-06-05 10:37:00,
2013-06-05 03:42:00,44.1,39.2,27.55,East,90,0.0,0.0,83,0.00,,,0.00,WUHU216HW,2013-06-05 10:42:00,
2013-06-05 03:47:00,43.9,39.1,27.55,East,90,0.0,0.0,83,0.00,,,0.00,WUHU216HW,2013-06-05 10:47:00,
2013-06-05 03:52:00,43.7,38.9,27.54,East,90,0.0,0.0,83,0.00,,,0.00,WUHU216HW,2013-06-05 10:52:00,
2013-06-05 03:57:00,43.7,38.9,27.55,East,90,0.0,0.0,83,0.00,,,0.00,WUHU216HW,2013-06-05 10:57:00,
2013-06-05 04:02:00,43.6,38.7,27.55,East,90,0.0,0.0,83,0.00,,,0.00,WUHU216HW,2013-06-05 11:02:00,
2013-06-05 04:07:00,43.4,38.5,27.55,East,90,0.0,0.0,83,0.00,,,0.00,WUHU216HW,2013-06-05 11:07:00,
2013-06-05 04:12:00,43.2,38.3,27.55,East,90,0.0,0.0,83,0.00,,,0.00,WUHU216HW,2013-06-05 11:12:00,
2013-06-05 04:17:00,43.2,38.3,27.55,ENE,68,0.0,0.0,83,0.00,,,0.00,WUHU216HW,2013-06-05 11:17:00,
2013-06-05 04:22:00,43.0,38.2,27.55,ENE,68,0.0,0.0,83,0.00,,,0.00,WUHU216HW,2013-06-05 11:22:00,
2013-06-05 04:27:00,43.0,38.2,27.55,ENE,68,0.0,0.0,83,0.00,,,0.00,WUHU216HW,2013-06-05 11:27:00,
2013-06-05 04:32:00,43.0,38.2,27.55,ENE,68,0.0,0.0,83,0.00,,,0.00,WUHU216HW,2013-06-05 11:32:00,
2013-06-05 04:37:00,43.0,38.2,27.55,ENE,68,0.0,0.0,83,0.00,,,0.00,WUHU216HW,2013-06-05 11:37:00,
2013-06-05 04:42:00,42.8,38.0,27.55,ENE,68,0.0,0.0,83,0.00,,,0.00,WUHU216HW,2013-06-05 11:42:00,
2013-06-05 04:47:00,42.8,38.4,27.55,ENE,68,0.0,0.0,84,0.00,,,0.00,WUHU216HW,2013-06-05 11:47:00,
2013-06-05 04:52:00,42.8,38.4,27.55,ENE,68,0.0,0.0,84,0.00,,,0.00,WUHU216HW,2013-06-05 11:52:00,
2013-06-05 04:57:00,42.8,38.4,27.55,ENE,68,0.0,0.0,84,0.00,,,0.00,WUHU216HW,2013-06-05 11:57:00,
2013-06-05 05:02:00,42.7,38.2,27.55,ENE,68,0.0,0.0,84,0.00,,,0.00,WUHU216HW,2013-06-05 12:02:00,
2013-06-05 05:07:00,42.5,38.0,27.54,ENE,68,0.0,0.0,84,0.00,,,0.00,WUHU216HW,2013-06-05 12:07:00,
2013-06-05 05:12:00,42.5,38.0,27.54,West,270,0.0,0.0,84,0.00,,,0.00,WUHU216HW,2013-06-05 12:12:00,
2013-06-05 05:17:00,42.3,37.8,27.55,West,270,0.0,0.0,84,0.00,,,0.00,WUHU216HW,2013-06-05 12:17:00,
2013-06-05 05:22:00,42.3,37.8,27.55,West,270,0.0,0.0,84,0.00,,,0.00,WUHU216HW,2013-06-05 12:22:00,
2013-06-05 05:27:00,42.1,37.6,27.55,West,270,0.0,0.0,84,0.00,,,0.00,WUHU216HW,2013-06-05 12:27:00,
2013-06-05 05:32:00,42.1,37.6,27.55,West,270,0.0,0.0,84,0.00,,,0.00,WUHU216HW,2013-06-05 12:32:00,
2013-06-05 05:37:00,42.1,37.9,27.55,WSW,248,0.0,0.0,85,0.00,,,0.00,WUHU216HW,2013-06-05 12:37:00,
2013-06-05 05:42:00,42.3,38.1,27.55,WSW,248,0.0,0.0,85,0.00,,,0.00,WUHU216HW,2013-06-05 12:42:00,
2013-06-05 05:47:00,42.3,38.1,27.56,WSW,248,0.0,0.0,85,0.00,,,0.00,WUHU216HW,2013-06-05 12:47:00,
2013-06-05 05:52:00,42.3,37.8,27.56,NE,45,0.0,0.0,84,0.00,,,0.00,WUHU216HW,2013-06-05 12:52:00,
2013-06-05 05:57:00,42.3,38.1,27.55,NE,45,0.0,0.0,85,0.00,,,0.00,WUHU216HW,2013-06-05 12:57:00,
2013-06-05 06:02:00,42.5,38.3,27.56,NE,45,0.0,0.0,85,0.00,,,0.00,WUHU216HW,2013-06-05 13:02:00,
2013-06-05 06:07:00,42.7,38.4,27.56,NE,45,0.0,0.0,85,0.00,,,0.00,WUHU216HW,2013-06-05 13:07:00,
2013-06-05 06:12:00,42.8,38.6,27.57,NE,45,0.0,0.0,85,0.00,,,0.00,WUHU216HW,2013-06-05 13:12:00,
2013-06-05 06:17:00,42.8,38.6,27.57,NE,45,0.2,0.2,85,0.00,,,0.00,WUHU216HW,2013-06-05 13:17:00,
2013-06-05 06:22:00,43.2,39.0,27.57,NE,45,0.0,0.2,85,0.00,,,0.00,WUHU216HW,2013-06-05 13:22:00,
2013-06-05 06:27:00,43.7,39.8,27.56,NNE,23,0.0,0.4,86,0.00,,,0.00,WUHU216HW,2013-06-05 13:27:00,
2013-06-05 06:32:00,44.1,40.5,27.56,NE,45,0.7,0.7,87,0.00,,,0.00,WUHU216HW,2013-06-05 13:32:00,
2013-06-05 06:37:00,44.8,41.2,27.56,North,0,0.2,0.7,87,0.00,,,0.00,WUHU216HW,2013-06-05 13:37:00,
2013-06-05 06:42:00,45.7,42.4,27.56,SE,135,0.0,0.4,88,0.00,,,0.00,WUHU216HW,2013-06-05 13:42:00,
2013-06-05 06:47:00,46.1,42.5,27.56,SE,135,0.0,0.0,87,0.00,,,0.00,WUHU216HW,2013-06-05 13:47:00,
2013-06-05 06:52:00,46.4,42.9,27.56,NE,45,0.2,0.7,87,0.00,,,0.00,WUHU216HW,2013-06-05 13:52:00,
2013-06-05 06:57:00,47.2,43.6,27.56,NNE,23,0.0,0.7,87,0.00,,,0.00,WUHU216HW,2013-06-05 13:57:00,
2013-06-05 07:02:00,47.9,44.2,27.56,NNE,23,0.0,0.0,87,0.00,,,0.00,WUHU216HW,2013-06-05 14:02:00,
2013-06-05 07:07:00,49.0,45.3,27.56,North,0,0.0,0.4,87,0.00,,,0.00,WUHU216HW,2013-06-05 14:07:00,
2013-06-05 07:12:00,50.0,46.5,27.56,East,90,1.1,1.1,88,0.00,,,0.00,WUHU216HW,2013-06-05 14:12:00,
2013-06-05 07:17:00,51.1,47.4,27.56,SE,135,0.4,1.1,87,0.00,,,0.00,WUHU216HW,2013-06-05 14:17:00,
2013-06-05 07:22:00,52.4,48.0,27.56,SE,135,1.1,1.3,85,0.00,,,0.00,WUHU216HW,2013-06-05 14:22:00,
2013-06-05 07:27:00,53.5,48.4,27.56,SE,135,1.1,1.3,83,0.00,,,0.00,WUHU216HW,2013-06-05 14:27:00,
2013-06-05 07:32:00,54.4,48.3,27.56,NW,315,0.4,1.3,80,0.00,,,0.00,WUHU216HW,2013-06-05 14:32:00,
2013-06-05 07:37:00,55.8,48.0,27.57,ESE,113,3.1,3.6,75,0.00,,,0.00,WUHU216HW,2013-06-05 14:37:00,
2013-06-05 07:42:00,56.9,49.0,27.57,ENE,68,0.0,3.6,75,0.00,,,0.00,WUHU216HW,2013-06-05 14:42:00,
2013-06-05 07:47:00,57.6,49.0,27.57,SE,135,1.1,4.7,73,0.00,,,0.00,WUHU216HW,2013-06-05 14:47:00,
2013-06-05 07:52:00,58.7,49.3,27.57,SSE,158,2.5,4.7,71,0.00,,,0.00,WUHU216HW,2013-06-05 14:52:00,
2013-06-05 07:57:00,59.6,49.1,27.57,SSE,158,2.5,2.5,68,0.00,,,0.00,WUHU216HW,2013-06-05 14:57:00,
2013-06-05 08:02:00,60.5,49.5,27.57,ESE,113,0.4,3.4,67,0.00,,,0.00,WUHU216HW,2013-06-05 15:02:00,
2013-06-05 08:07:00,61.2,50.6,27.57,North,0,1.1,3.4,68,0.00,,,0.00,WUHU216HW,2013-06-05 15:07:00,
2013-06-05 08:12:00,62.1,49.8,27.57,ENE,68,0.2,2.5,64,0.00,,,0.00,WUHU216HW,2013-06-05 15:12:00,
2013-06-05 08:17:00,62.6,48.6,27.58,ESE,113,1.8,3.1,60,0.00,,,0.00,WUHU216HW,2013-06-05 15:17:00,
2013-06-05 08:22:00,63.0,49.3,27.57,SE,135,1.8,3.1,61,0.00,,,0.00,WUHU216HW,2013-06-05 15:22:00,
2013-06-05 08:27:00,63.2,49.1,27.58,SE,135,0.4,4.3,60,0.00,,,0.00,WUHU216HW,2013-06-05 15:27:00,
2013-06-05 08:32:00,63.7,50.4,27.58,West,270,0.2,4.3,62,0.00,,,0.00,WUHU216HW,2013-06-05 15:32:00,
2013-06-05 08:37:00,64.4,49.8,27.57,SE,135,1.6,3.6,59,0.00,,,0.00,WUHU216HW,2013-06-05 15:37:00,
2013-06-05 08:42:00,64.8,51.0,27.57,East,90,0.4,2.9,61,0.00,,,0.00,WUHU216HW,2013-06-05 15:42:00,
2013-06-05 08:47:00,65.9,50.2,27.56,ESE,113,2.5,2.9,57,0.00,,,0.00,WUHU216HW,2013-06-05 15:47:00,
2013-06-05 08:52:00,66.6,50.9,27.56,South,180,1.1,2.5,57,0.00,,,0.00,WUHU216HW,2013-06-05 15:52:00,
2013-06-05 08:57:00,67.1,51.8,27.56,NE,45,1.8,1.8,58,0.00,,,0.00,WUHU216HW,2013-06-05 15:57:00,
2013-06-05 09:02:00,67.5,51.2,27.56,NNE,23,0.7,2.5,56,0.00,,,0.00,WUHU216HW,2013-06-05 16:02:00,
2013-06-05 09:07:00,67.9,50.6,27.56,SE,135,2.5,2.5,54,0.00,,,0.00,WUHU216HW,2013-06-05 16:07:00,
2013-06-05 09:12:00,68.2,51.4,27.56,SE,135,2.7,3.1,55,0.00,,,0.00,WUHU216HW,2013-06-05 16:12:00,
2013-06-05 09:17:00,68.4,50.6,27.56,ESE,113,1.3,3.1,53,0.00,,,0.00,WUHU216HW,2013-06-05 16:17:00,
2013-06-05 09:22:00,69.3,52.4,27.56,NNW,338,0.0,1.8,55,0.00,,,0.00,WUHU216HW,2013-06-05 16:22:00,
2013-06-05 09:27:00,70.2,51.8,27.56,South,180,0.9,1.6,52,0.00,,,0.00,WUHU216HW,2013-06-05 16:27:00,
2013-06-05 09:32:00,70.2,51.8,27.56,SE,135,2.2,2.2,52,0.00,,,0.00,WUHU216HW,2013-06-05 16:32:00,
2013-06-05 09:37:00,70.6,52.0,27.56,ESE,113,0.4,2.2,52,0.00,,,0.00,WUHU216HW,2013-06-05 16:37:00,
2013-06-05 09:42:00,71.3,51.7,27.56,SE,135,3.6,3.6,50,0.00,,,0.00,WUHU216HW,2013-06-05 16:42:00,
2013-06-05 09:47:00,71.6,51.4,27.56,SSE,158,3.1,3.6,49,0.00,,,0.00,WUHU216HW,2013-06-05 16:47:00,
2013-06-05 09:52:00,71.8,52.2,27.56,SSE,158,2.5,3.1,50,0.00,,,0.00,WUHU216HW,2013-06-05 16:52:00,
2013-06-05 09:57:00,71.6,52.6,27.56,WSW,248,1.3,3.4,51,0.00,,,0.00,WUHU216HW,2013-06-05 16:57:00,
2013-06-05 10:02:00,72.4,51.5,27.56,SE,135,2.2,3.4,48,0.00,,,0.00,WUHU216HW,2013-06-05 17:02:00,
2013-06-05 10:07:00,72.4,52.1,27.56,North,0,0.9,2.5,49,0.00,,,0.00,WUHU216HW,2013-06-05 17:07:00,
2013-06-05 10:12:00,73.1,51.6,27.56,South,180,1.6,2.2,47,0.00,,,0.00,WUHU216HW,2013-06-05 17:12:00,
2013-06-05 10:17:00,73.1,52.1,27.56,SSE,158,1.1,2.5,48,0.00,,,0.00,WUHU216HW,2013-06-05 17:17:00,
2013-06-05 10:22:00,73.4,52.5,27.55,SW,225,2.0,2.5,48,0.00,,,0.00,WUHU216HW,2013-06-05 17:22:00,
2013-06-05 10:27:00,74.2,51.9,27.56,NNW,338,1.8,2.0,46,0.00,,,0.00,WUHU216HW,2013-06-05 17:27:00,
2013-06-05 10:32:00,74.3,52.1,27.55,North,0,1.8,1.8,46,0.00,,,0.00,WUHU216HW,2013-06-05 17:32:00,
2013-06-05 10:37:00,74.5,52.9,27.55,SSW,203,0.9,2.7,47,0.00,,,0.00,WUHU216HW,2013-06-05 17:37:00,
2013-06-05 10:42:00,74.9,50.9,27.55,SW,225,1.8,2.7,43,0.00,,,0.00,WUHU216HW,2013-06-05 17:42:00,
2013-06-05 10:47:00,75.2,50.6,27.55,North,0,2.5,2.5,42,0.00,,,0.00,WUHU216HW,2013-06-05 17:47:00,
2013-06-05 10:52:00,75.8,50.4,27.55,SSW,203,4.0,4.0,41,0.00,,,0.00,WUHU216HW,2013-06-05 17:52:00,
2013-06-05 10:57:00,75.6,48.9,27.55,SE,135,0.9,4.0,39,0.00,,,0.00,WUHU216HW,2013-06-05 17:57:00,
2013-06-05 11:02:00,75.8,51.0,27.55,NE,45,0.9,4.0,42,0.00,,,0.00,WUHU216HW,2013-06-05 18:02:00,
2013-06-05 11:07:00,76.1,50.1,27.55,SSE,158,0.4,4.3,40,0.00,,,0.00,WUHU216HW,2013-06-05 18:07:00,
2013-06-05 11:12:00,76.3,50.3,27.55,SW,225,2.9,4.3,40,0.00,,,0.00,WUHU216HW,2013-06-05 18:12:00,
2013-06-05 11:17:00,76.3,48.8,27.55,SW,225,1.8,4.0,38,0.00,,,0.00,WUHU216HW,2013-06-05 18:17:00,
2013-06-05 11:22:00,76.5,49.7,27.55,SSW,203,0.7,3.1,39,0.00,,,0.00,WUHU216HW,2013-06-05 18:22:00,
2013-06-05 11:27:00,76.7,49.2,27.55,ESE,113,3.1,4.0,38,0.00,,,0.00,WUHU216HW,2013-06-05 18:27:00,
2013-06-05 11:32:00,76.9,50.8,27.55,SSW,203,2.0,4.0,40,0.00,,,0.00,WUHU216HW,2013-06-05 18:32:00,
2013-06-05 11:37:00,77.4,51.3,27.54,West,270,1.1,2.2,40,0.00,,,0.00,WUHU216HW,2013-06-05 18:37:00,
2013-06-05 11:42:00,77.8,50.9,27.54,SSW,203,1.1,2.2,39,0.00,,,0.00,WUHU216HW,2013-06-05 18:42:00,
2013-06-05 11:47:00,77.4,47.4,27.55,West,270,2.2,4.9,35,0.00,,,0.00,WUHU216HW,2013-06-05 18:47:00,
2013-06-05 11:52:00,77.0,48.7,27.54,ENE,68,0.4,4.9,37,0.00,,,0.00,WUHU216HW,2013-06-05 18:52:00,
2013-06-05 11:57:00,77.6,47.6,27.54,NW,315,1.1,2.9,35,0.00,,,0.00,WUHU216HW,2013-06-05 18:57:00,
2013-06-05 12:02:00,78.1,48.1,27.54,West,270,4.7,4.7,35,0.00,,,0.00,WUHU216HW,2013-06-05 19:02:00,
2013-06-05 12:07:00,78.5,48.4,27.54,SSE,158,0.9,5.6,35,0.00,,,0.00,WUHU216HW,2013-06-05 19:07:00,
2013-06-05 12:12:00,78.7,47.8,27.54,West,270,1.8,5.6,34,0.00,,,0.00,WUHU216HW,2013-06-05 19:12:00,
2013-06-05 12:17:00,78.8,47.9,27.54,WSW,248,4.3,4.3,34,0.00,,,0.00,WUHU216HW,2013-06-05 19:17:00,
2013-06-05 12:22:00,78.8,47.9,27.54,WSW,248,4.5,4.7,34,0.00,,,0.00,WUHU216HW,2013-06-05 19:22:00,
2013-06-05 12:27:00,78.7,50.0,27.53,South,180,2.2,4.7,37,0.00,,,0.00,WUHU216HW,2013-06-05 19:27:00,
2013-06-05 12:32:00,78.8,47.2,27.53,South,180,1.3,3.1,33,0.00,,,0.00,WUHU216HW,2013-06-05 19:32:00,
2013-06-05 12:37:00,79.0,48.9,27.53,WSW,248,1.1,2.5,35,0.00,,,0.00,WUHU216HW,2013-06-05 19:37:00,
2013-06-05 12:42:00,78.8,47.9,27.53,WSW,248,3.4,3.4,34,0.00,,,0.00,WUHU216HW,2013-06-05 19:42:00,
2013-06-05 12:47:00,78.7,47.8,27.53,SE,135,1.3,4.0,34,0.00,,,0.00,WUHU216HW,2013-06-05 19:47:00,
2013-06-05 12:52:00,78.8,47.9,27.53,ESE,113,2.5,4.0,34,0.00,,,0.00,WUHU216HW,2013-06-05 19:52:00,
2013-06-05 12:57:00,78.8,48.7,27.53,ENE,68,0.9,2.9,35,0.00,,,0.00,WUHU216HW,2013-06-05 19:57:00,
2013-06-05 13:02:00,78.7,47.0,27.53,SSW,203,6.0,6.0,33,0.00,,,0.00,WUHU216HW,2013-06-05 20:02:00,
2013-06-05 13:07:00,79.0,48.1,27.53,SSE,158,0.4,6.9,34,0.00,,,0.00,WUHU216HW,2013-06-05 20:07:00,
2013-06-05 13:12:00,79.6,47.8,27.52,SW,225,3.4,6.9,33,0.00,,,0.00,WUHU216HW,2013-06-05 20:12:00,
2013-06-05 13:17:00,79.0,46.5,27.53,WSW,248,2.0,6.0,32,0.00,,,0.00,WUHU216HW,2013-06-05 20:17:00,
2013-06-05 13:22:00,78.5,46.8,27.52,SW,225,2.2,4.0,33,0.00,,,0.00,WUHU216HW,2013-06-05 20:22:00,
2013-06-05 13:27:00,78.5,46.8,27.52,SW,225,3.4,3.4,33,0.00,,,0.00,WUHU216HW,2013-06-05 20:27:00,
2013-06-05 13:32:00,79.2,48.2,27.52,South,180,1.1,3.4,34,0.00,,,0.00,WUHU216HW,2013-06-05 20:32:00,
2013-06-05 13:37:00,79.6,47.0,27.52,SSW,203,3.6,3.6,32,0.00,,,0.00,WUHU216HW,2013-06-05 20:37:00,
2013-06-05 13:42:00,79.7,48.0,27.52,South,180,1.8,3.6,33,0.00,,,0.00,WUHU216HW,2013-06-05 20:42:00,
2013-06-05 13:47:00,79.9,49.7,27.52,South,180,1.6,4.0,35,0.00,,,0.00,WUHU216HW,2013-06-05 20:47:00,
2013-06-05 13:52:00,80.1,49.1,27.51,SW,225,4.0,4.0,34,0.00,,,0.00,WUHU216HW,2013-06-05 20:52:00,
2013-06-05 13:57:00,79.9,48.9,27.51,South,180,1.3,4.0,34,0.00,,,0.00,WUHU216HW,2013-06-05 20:57:00,
2013-06-05 14:02:00,79.9,48.2,27.51,SSW,203,3.4,4.7,33,0.00,,,0.00,WUHU216HW,2013-06-05 21:02:00,
2013-06-05 14:07:00,79.9,48.9,27.51,NNW,338,0.9,4.7,34,0.00,,,0.00,WUHU216HW,2013-06-05 21:07:00,
2013-06-05 14:12:00,79.6,48.6,27.51,SSW,203,2.7,5.1,34,0.00,,,0.00,WUHU216HW,2013-06-05 21:12:00,
2013-06-05 14:17:00,79.2,49.1,27.51,SW,225,3.4,5.1,35,0.00,,,0.00,WUHU216HW,2013-06-05 21:17:00,
2013-06-05 14:22:00,79.6,49.3,27.51,SSW,203,3.4,4.0,35,0.00,,,0.00,WUHU216HW,2013-06-05 21:22:00,
2013-06-05 14:27:00,79.6,49.3,27.51,South,180,2.2,4.0,35,0.00,,,0.00,WUHU216HW,2013-06-05 21:27:00,
2013-06-05 14:32:00,80.3,49.2,27.51,SSW,203,3.6,3.6,34,0.00,,,0.00,WUHU216HW,2013-06-05 21:32:00,
2013-06-05 14:37:00,81.4,49.3,27.51,ESE,113,1.8,5.4,33,0.00,,,0.00,WUHU216HW,2013-06-05 21:37:00,
2013-06-05 14:42:00,81.4,49.3,27.50,WSW,248,4.7,5.8,33,0.00,,,0.00,WUHU216HW,2013-06-05 21:42:00,
2013-06-05 14:47:00,82.1,48.4,27.50,SE,135,3.8,5.8,31,0.00,,,0.00,WUHU216HW,2013-06-05 21:47:00,
2013-06-05 14:52:00,82.3,48.5,27.50,WSW,248,4.0,4.5,31,0.00,,,0.00,WUHU216HW,2013-06-05 21:52:00,
2013-06-05 14:57:00,81.4,48.6,27.50,East,90,0.2,5.4,32,0.00,,,0.00,WUHU216HW,2013-06-05 21:57:00,
2013-06-05 15:02:00,81.0,48.2,27.50,SW,225,3.4,5.4,32,0.00,,,0.00,WUHU216HW,2013-06-05 22:02:00,
2013-06-05 15:07:00,81.0,49.9,27.50,SSW,203,1.1,3.6,34,0.00,,,0.00,WUHU216HW,2013-06-05 22:07:00,
2013-06-05 15:12:00,81.2,49.2,27.49,SSW,203,2.9,3.4,33,0.00,,,0.00,WUHU216HW,2013-06-05 22:12:00,
2013-06-05 15:17:00,80.5,48.6,27.49,SSW,203,2.5,4.0,33,0.00,,,0.00,WUHU216HW,2013-06-05 22:17:00,
2013-06-05 15:22:00,80.6,48.8,27.49,ESE,113,2.5,4.0,33,0.00,,,0.00,WUHU216HW,2013-06-05 22:22:00,
2013-06-05 15:27:00,80.3,48.4,27.49,SW,225,4.0,4.0,33,0.00,,,0.00,WUHU216HW,2013-06-05 22:27:00,
2013-06-05 15:32:00,80.1,49.1,27.49,SSW,203,3.4,4.7,34,0.00,,,0.00,WUHU216HW,2013-06-05 22:32:00,
2013-06-05 15:37:00,80.3,47.7,27.49,ESE,113,3.6,6.5,32,0.00,,,0.00,WUHU216HW,2013-06-05 22:37:00,
2013-06-05 15:42:00,79.7,48.7,27.49,SSW,203,2.2,6.5,34,0.00,,,0.00,WUHU216HW,2013-06-05 22:42:00,
2013-06-05 15:47:00,80.3,50.0,27.49,South,180,1.3,5.4,35,0.00,,,0.00,WUHU216HW,2013-06-05 22:47:00,
2013-06-05 15:52:00,80.8,48.2,27.48,ESE,113,3.4,4.0,32,0.00,,,0.00,WUHU216HW,2013-06-05 22:52:00,
2013-06-05 15:57:00,81.0,49.1,27.48,WSW,248,3.8,4.3,33,0.00,,,0.00,WUHU216HW,2013-06-05 22:57:00,
2013-06-05 16:02:00,81.0,49.9,27.49,SSE,158,1.8,4.7,34,0.00,,,0.00,WUHU216HW,2013-06-05 23:02:00,
2013-06-05 16:07:00,80.8,48.9,27.49,SSE,158,1.1,4.7,33,0.00,,,0.00,WUHU216HW,2013-06-05 23:07:00,
2013-06-05 16:12:00,80.8,49.7,27.48,WNW,293,1.8,2.5,34,0.00,,,0.00,WUHU216HW,2013-06-05 23:12:00,
2013-06-05 16:17:00,80.6,48.8,27.48,NW,315,0.4,4.7,33,0.00,,,0.00,WUHU216HW,2013-06-05 23:17:00,
2013-06-05 16:22:00,79.9,48.9,27.48,East,90,3.1,4.7,34,0.00,,,0.00,WUHU216HW,2013-06-05 23:22:00,
2013-06-05 16:27:00,81.0,50.6,27.48,South,180,2.2,4.9,35,0.00,,,0.00,WUHU216HW,2013-06-05 23:27:00,
2013-06-05 16:32:00,81.9,49.8,27.48,SSW,203,3.4,4.9,33,0.00,,,0.00,WUHU216HW,2013-06-05 23:32:00,
2013-06-05 16:37:00,82.1,49.1,27.48,South,180,3.4,4.3,32,0.00,,,0.00,WUHU216HW,2013-06-05 23:37:00,
2013-06-05 16:42:00,82.3,50.1,27.48,SW,225,3.4,4.7,33,0.00,,,0.00,WUHU216HW,2013-06-05 23:42:00,
2013-06-05 16:47:00,82.6,50.4,27.48,SSE,158,2.5,4.7,33,0.00,,,0.00,WUHU216HW,2013-06-05 23:47:00,
2013-06-05 16:52:00,82.1,50.0,27.48,SSW,203,4.0,4.3,33,0.00,,,0.00,WUHU216HW,2013-06-05 23:52:00,
2013-06-05 16:57:00,82.1,49.1,27.48,SSE,158,1.6,4.0,32,0.00,,,0.00,WUHU216HW,2013-06-05 23:57:00,
2013-06-05 17:02:00,82.4,49.5,27.47,WSW,248,3.1,3.1,32,0.00,,,0.00,WUHU216HW,2013-06-06 00:02:00,
2013-06-05 17:07:00,81.7,48.9,27.47,SW,225,2.5,5.1,32,0.00,,,0.00,WUHU216HW,2013-06-06 00:07:00,
2013-06-05 17:12:00,81.4,48.6,27.47,WSW,248,2.0,5.1,32,0.00,,,0.00,WUHU216HW,2013-06-06 00:12:00,
2013-06-05 17:17:00,81.5,48.7,27.47,SSE,158,1.8,4.7,32,0.00,,,0.00,WUHU216HW,2013-06-06 00:17:00,
2013-06-05 17:22:00,81.7,50.4,27.47,South,180,1.1,3.8,34,0.00,,,0.00,WUHU216HW,2013-06-06 00:22:00,
2013-06-05 17:27:00,82.1,49.1,27.46,SW,225,2.2,2.5,32,0.00,,,0.00,WUHU216HW,2013-06-06 00:27:00,
2013-06-05 17:32:00,82.1,47.6,27.47,SW,225,4.7,6.0,30,0.00,,,0.00,WUHU216HW,2013-06-06 00:32:00,
2013-06-05 17:37:00,81.7,46.3,27.46,SSW,203,2.9,6.0,29,0.00,,,0.00,WUHU216HW,2013-06-06 00:37:00,
2013-06-05 17:42:00,81.7,47.4,27.46,WSW,248,2.0,4.7,30,0.00,,,0.00,WUHU216HW,2013-06-06 00:42:00,
2013-06-05 17:47:00,82.1,47.6,27.46,West,270,2.9,4.0,30,0.00,,,0.00,WUHU216HW,2013-06-06 00:47:00,
2013-06-05 17:52:00,81.7,46.3,27.46,SW,225,4.0,4.5,29,0.00,,,0.00,WUHU216HW,2013-06-06 00:52:00,
2013-06-05 17:57:00,81.2,46.9,27.46,SW,225,3.1,4.5,30,0.00,,,0.00,WUHU216HW,2013-06-06 00:57:00,
2013-06-05 18:02:00,80.6,46.4,27.46,SSW,203,1.8,3.6,30,0.00,,,0.00,WUHU216HW,2013-06-06 01:02:00,
2013-06-05 18:07:00,80.6,47.3,27.46,WSW,248,3.1,3.6,31,0.00,,,0.00,WUHU216HW,2013-06-06 01:07:00,
2013-06-05 18:12:00,80.6,47.3,27.46,WSW,248,1.6,4.0,31,0.00,,,0.00,WUHU216HW,2013-06-06 01:12:00,
2013-06-05 18:17:00,80.3,46.1,27.46,WSW,248,1.3,4.0,30,0.00,,,0.00,WUHU216HW,2013-06-06 01:17:00,
2013-06-05 18:22:00,80.1,46.7,27.46,SW,225,3.8,3.8,31,0.00,,,0.00,WUHU216HW,2013-06-06 01:22:00,
2013-06-05 18:27:00,79.9,46.5,27.45,SW,225,4.3,4.7,31,0.00,,,0.00,WUHU216HW,2013-06-06 01:27:00,
2013-06-05 18:32:00,79.6,47.0,27.45,WSW,248,2.5,5.4,32,0.00,,,0.00,WUHU216HW,2013-06-06 01:32:00,
2013-06-05 18:37:00,79.2,46.7,27.45,SW,225,1.8,5.4,32,0.00,,,0.00,WUHU216HW,2013-06-06 01:37:00,
2013-06-05 18:42:00,78.8,47.2,27.45,WSW,248,1.1,4.0,33,0.00,,,0.00,WUHU216HW,2013-06-06 01:42:00,
2013-06-05 18:47:00,78.7,46.3,27.46,WSW,248,3.1,3.1,32,0.00,,,0.00,WUHU216HW,2013-06-06 01:47:00,
2013-06-05 18:52:00,78.5,46.8,27.46,SSW,203,2.0,4.9,33,0.00,,,0.00,WUHU216HW,2013-06-06 01:52:00,
2013-06-05 18:57:00,78.3,45.9,27.45,WSW,248,3.1,4.9,32,0.00,,,0.00,WUHU216HW,2013-06-06 01:57:00,
2013-06-05 19:02:00,78.1,45.8,27.45,WSW,248,2.9,3.4,32,0.00,,,0.00,WUHU216HW,2013-06-06 02:02:00,
2013-06-05 19:07:00,78.1,46.5,27.45,WSW,248,2.0,4.0,33,0.00,,,0.00,WUHU216HW,2013-06-06 02:07:00,
2013-06-05 19:12:00,77.9,45.6,27.45,SW,225,1.8,4.0,32,0.00,,,0.00,WUHU216HW,2013-06-06 02:12:00,
2013-06-05 19:17:00,77.8,46.3,27.45,SW,225,1.1,4.7,33,0.00,,,0.00,WUHU216HW,2013-06-06 02:17:00,
2013-06-05 19:22:00,77.6,46.1,27.45,SW,225,1.8,4.7,33,0.00,,,0.00,WUHU216HW,2013-06-06 02:22:00,
2013-06-05 19:27:00,77.4,46.0,27.45,SW,225,0.7,3.6,33,0.00,,,0.00,WUHU216HW,2013-06-06 02:27:00,
2013-06-05 19:32:00,77.2,46.5,27.45,SW,225,0.4,2.9,34,0.00,,,0.00,WUHU216HW,2013-06-06 02:32:00,
2013-06-05 19:37:00,76.9,46.3,27.45,SSW,203,0.4,1.3,34,0.00,,,0.00,WUHU216HW,2013-06-06 02:37:00,
2013-06-05 19:42:00,76.3,46.5,27.45,SW,225,0.4,1.1,35,0.00,,,0.00,WUHU216HW,2013-06-06 02:42:00,
2013-06-05 19:47:00,76.0,46.2,27.45,WSW,248,0.7,1.1,35,0.00,,,0.00,WUHU216HW,2013-06-06 02:47:00,
2013-06-05 19:52:00,75.6,46.6,27.45,SW,225,0.2,1.1,36,0.00,,,0.00,WUHU216HW,2013-06-06 02:52:00,
2013-06-05 19:57:00,75.4,47.3,27.45,SE,135,0.0,0.9,37,0.00,,,0.00,WUHU216HW,2013-06-06 02:57:00,
2013-06-05 20:02:00,75.1,47.6,27.45,SE,135,0.0,0.4,38,0.00,,,0.00,WUHU216HW,2013-06-06 03:02:00,
2013-06-05 20:07:00,74.3,47.8,27.45,SE,135,0.0,0.4,39,0.00,,,0.00,WUHU216HW,2013-06-06 03:07:00,
2013-06-05 20:12:00,73.8,48.1,27.45,ESE,113,0.0,0.4,40,0.00,,,0.00,WUHU216HW,2013-06-06 03:12:00,
2013-06-05 20:17:00,73.4,48.3,27.45,East,90,0.0,0.4,41,0.00,,,0.00,WUHU216HW,2013-06-06 03:17:00,
2013-06-05 20:22:00,72.7,47.6,27.45,East,90,0.4,0.4,41,0.00,,,0.00,WUHU216HW,2013-06-06 03:22:00,
2013-06-05 20:27:00,72.4,47.9,27.45,East,90,0.0,0.4,42,0.00,,,0.00,WUHU216HW,2013-06-06 03:27:00,
2013-06-05 20:32:00,71.6,47.9,27.45,East,90,0.0,0.0,43,0.00,,,0.00,WUHU216HW,2013-06-06 03:32:00,
2013-06-05 20:37:00,70.9,47.8,27.45,East,90,0.0,0.4,44,0.00,,,0.00,WUHU216HW,2013-06-06 03:37:00,
2013-06-05 20:42:00,70.2,47.8,27.45,East,90,0.0,0.4,45,0.00,,,0.00,WUHU216HW,2013-06-06 03:42:00,
2013-06-05 20:47:00,69.5,47.7,27.45,East,90,0.4,0.4,46,0.00,,,0.00,WUHU216HW,2013-06-06 03:47:00,
2013-06-05 20:52:00,68.8,47.1,27.45,East,90,0.0,0.4,46,0.00,,,0.00,WUHU216HW,2013-06-06 03:52:00,
2013-06-05 20:57:00,68.0,47.0,27.45,East,90,0.0,0.4,47,0.00,,,0.00,WUHU216HW,2013-06-06 03:57:00,
2013-06-05 21:01:00,67.5,47.1,27.45,East,90,0.2,0.4,48,0.00,,,0.00,WUHU216HW,2013-06-06 04:01:00,
2013-06-05 21:06:00,66.6,46.9,27.45,ENE,68,0.2,0.7,49,0.00,,,0.00,WUHU216HW,2013-06-06 04:06:00,
2013-06-05 21:11:00,66.2,47.2,27.45,ENE,68,0.4,0.7,50,0.00,,,0.00,WUHU216HW,2013-06-06 04:11:00,
2013-06-05 21:16:00,65.5,46.9,27.45,ENE,68,0.7,0.7,51,0.00,,,0.00,WUHU216HW,2013-06-06 04:16:00,
2013-06-05 21:21:00,64.8,47.2,27.45,ENE,68,0.0,0.9,53,0.00,,,0.00,WUHU216HW,2013-06-06 04:21:00,
2013-06-05 21:26:00,64.3,46.6,27.45,ENE,68,0.0,0.9,53,0.00,,,0.00,WUHU216HW,2013-06-06 04:26:00,
2013-06-05 21:31:00,63.9,46.8,27.46,ENE,68,0.0,0.4,54,0.00,,,0.00,WUHU216HW,2013-06-06 04:31:00,
2013-06-05 21:36:00,63.4,46.8,27.45,ENE,68,0.2,0.4,55,0.00,,,0.00,WUHU216HW,2013-06-06 04:36:00,
2013-06-05 21:41:00,63.0,47.0,27.46,ENE,68,0.4,0.4,56,0.00,,,0.00,WUHU216HW,2013-06-06 04:41:00,
2013-06-05 21:46:00,62.5,47.4,27.45,ENE,68,0.2,0.4,58,0.00,,,0.00,WUHU216HW,2013-06-06 04:46:00,
2013-06-05 21:51:00,62.1,47.2,27.45,ENE,68,0.4,0.4,58,0.00,,,0.00,WUHU216HW,2013-06-06 04:51:00,
2013-06-05 21:56:00,61.7,47.4,27.45,ENE,68,0.2,0.4,59,0.00,,,0.00,WUHU216HW,2013-06-06 04:56:00,
2013-06-05 22:01:00,61.4,47.4,27.45,ENE,68,0.2,0.4,60,0.00,,,0.00,WUHU216HW,2013-06-06 05:01:00,
2013-06-05 22:06:00,61.0,47.5,27.45,East,90,0.7,0.7,61,0.00,,,0.00,WUHU216HW,2013-06-06 05:06:00,
2013-06-05 22:11:00,60.8,47.4,27.45,East,90,0.4,0.7,61,0.00,,,0.00,WUHU216HW,2013-06-06 05:11:00,
2013-06-05 22:16:00,60.5,47.4,27.46,ENE,68,0.4,0.4,62,0.00,,,0.00,WUHU216HW,2013-06-06 05:16:00,
2013-06-05 22:21:00,60.3,47.3,27.46,ENE,68,0.0,0.4,62,0.00,,,0.00,WUHU216HW,2013-06-06 05:21:00,
2013-06-05 22:26:00,60.1,47.1,27.46,East,90,0.0,0.4,62,0.00,,,0.00,WUHU216HW,2013-06-06 05:26:00,
2013-06-05 22:31:00,59.8,46.7,27.46,ENE,68,0.0,0.0,62,0.00,,,0.00,WUHU216HW,2013-06-06 05:31:00,
2013-06-05 22:36:00,59.8,46.7,27.46,ENE,68,0.0,0.2,62,0.00,,,0.00,WUHU216HW,2013-06-06 05:36:00,
2013-06-05 22:41:00,59.4,46.8,27.46,ENE,68,0.0,0.2,63,0.00,,,0.00,WUHU216HW,2013-06-06 05:41:00,
2013-06-05 22:46:00,59.2,46.6,27.46,ENE,68,0.0,0.0,63,0.00,,,0.00,WUHU216HW,2013-06-06 05:46:00,
2013-06-05 22:51:00,59.0,46.5,27.46,ENE,68,0.0,0.0,63,0.00,,,0.00,WUHU216HW,2013-06-06 05:51:00,
2013-06-05 22:56:00,58.9,46.7,27.46,ENE,68,0.0,0.0,64,0.00,,,0.00,WUHU216HW,2013-06-06 05:56:00,
2013-06-05 23:01:00,58.7,46.5,27.46,ENE,68,0.0,0.0,64,0.00,,,0.00,WUHU216HW,2013-06-06 06:01:00,
2013-06-05 23:06:00,58.3,46.2,27.46,WNW,293,0.0,0.4,64,0.00,,,0.00,WUHU216HW,2013-06-06 06:06:00,
2013-06-05 23:11:00,58.0,46.6,27.46,SE,135,0.0,0.7,66,0.00,,,0.00,WUHU216HW,2013-06-06 06:11:00,
2013-06-05 23:16:00,57.8,46.4,27.46,NNW,338,0.0,0.7,66,0.00,,,0.00,WUHU216HW,2013-06-06 06:16:00,
2013-06-05 23:21:00,57.6,46.3,27.46,East,90,0.0,0.2,66,0.00,,,0.00,WUHU216HW,2013-06-06 06:21:00,
2013-06-05 23:26:00,57.4,46.1,27.46,East,90,0.0,0.0,66,0.00,,,0.00,WUHU216HW,2013-06-06 06:26:00,
2013-06-05 23:31:00,57.2,46.4,27.46,ESE,113,0.0,0.7,67,0.00,,,0.00,WUHU216HW,2013-06-06 06:31:00,
2013-06-05 23:36:00,57.1,46.5,27.45,ENE,68,0.2,0.7,68,0.00,,,0.00,WUHU216HW,2013-06-06 06:36:00,
2013-06-05 23:41:00,56.9,46.5,27.45,ENE,68,0.2,0.2,68,0.00,,,0.00,WUHU216HW,2013-06-06 06:41:00,
2013-06-05 23:46:00,56.5,46.4,27.45,ENE,68,0.4,0.4,69,0.00,,,0.00,WUHU216HW,2013-06-06 06:46:00,
2013-06-05 23:51:00,56.5,46.4,27.45,ENE,68,0.7,0.7,69,0.00,,,0.00,WUHU216HW,2013-06-06 06:51:00,
2013-06-05 23:56:00,56.2,46.5,27.45,ENE,68,0.4,0.7,70,0.00,,,0.00,WUHU216HW,2013-06-06 06:56:00,